星链-35283(STARLINK-35283)

导读 | 豆包AI

STARLINK-35283是美国SpaceX星链星座的卫星,于2025年11月15日发射,属于星链第二代低轨卫星,该卫星主要服务全球高速互联网接入,为地面偏远地区、移动载体等提供低成本网络覆盖,延续星链星座的组网部署节奏,强化星座低轨通信网络的覆盖密度与服务稳定性。

基本信息
目录编号:
66478
目录名称:
STARLINK-35283
国际标识:
2025-262Y
轨道中心:
EARTH
卫星名称:
星链-35283
卫星全名:
星链-35283(STARLINK-35283)
卫星状态:
在轨 (已飞行165 天)
发射日期:
2025-11-15 UTC
国别 :
美国 (US)
星等 :
--
轨道信息
数据来源 国际轨道数据
星历时间: 2026-04-29T07:20:56+0800
5小时前
查看轨道信息
半长轴: 6861.264km
偏心率: 0.0001802
轨道倾角: 43.004°
近地点辐角 259.453°
升交点赤经 12.444°
平近点角 100.612°
近地点: 481.89km
远地点: 484.364km
周期: 94.268分钟
每日圈数: 15.275541
详细信息
固有亮度:
5
最大亮度:
2.5
卫星平台:
Starlink V1.0
覆盖范围:
全球
运营商:
太空探索技术公司
运营商所在国:
美国
制造商(研发单位):
太空探索技术公司
制造商所在国:
美国
使用方式:
暂无
卫星简介
Starlink 计划是 SpaceX 推出的全球卫星互联网项目,通过发射低轨道卫星,为全球尤其是偏远地区提供高速、低延迟的互联网服务。自 2019 年起,Starlink 已部署数千颗卫星,旨在缩小全球数字鸿沟,推动互联网普及。该项目还为军事、航空等行业提供通信支持,带来广泛经济效益。
2D轨道图
3D轨道图
轨道高度分析图
轨道倾角分析图
轨道综合分析图
查看轨道综合分析图